QPF
0.01 0.01 0.01 0.00 0.00 0.00 0.00 0.00 0.00 0.00 0.00 0.00 0.00 0.00 0.00 0.00 0.00 0.00 0.00 0.00 0.00 0.00 0.00 0.00 0.00 0.00 0.00 0.00 0.00 0.00 0.00 0.00 0.00 0.00 0.00 0.00 0.00 0.00 0.00 0.00 0.00 0.00 0.00 0.01
0.01 0.01 0.00 0.00 0.00 0.00 0.00 0.00 0.00 0.00 0.00 0.00 0.00 0.00 0.00 0.00 0.00 0.00 0.00 0.00 0.00 0.00 0.00 0.00 0.00 0.00 0.00 0.00 0.00 0.00 0.00 0.00 0.00 0.00 0.00 0.00 0.00 0.00 0.00 0.00 0.00 0.00 0.00 0.01
0.00 0.00 0.00 0.00 0.00 0.00 0.00 0.00 0.00 0.00 0.00 0.00 0.00 0.00 0.00 0.00 0.00 0.00 0.00 0.00 0.00 0.00 0.00 0.00 0.00 0.00 0.00 0.00 0.00 0.00 0.00 0.00 0.00 0.00 0.00 0.00 0.00 0.00 0.00 0.00 0.00 0.00 0.00 0.00
0.00 0.00 0.00 0.00 0.00 0.00 0.00 0.00 0.00 0.00 0.00 0.00 0.00 0.00 0.00 0.00 0.00 0.00 0.00 0.00 0.00 0.00 0.00 0.00 0.00 0.00 0.00 0.00 0.00 0.00 0.00 0.00 0.00 0.00 0.00 0.00 0.00 0.00 0.00 0.00 0.00 0.00 0.00 0.00
0.00 0.00 0.00 0.00 0.00 0.00 0.00 0.00 0.00 0.00 0.00 0.00 0.00 0.00 0.00 0.00 0.00 0.00 0.00 0.00 0.00 0.00 0.00 0.00 0.00 0.00 0.00 0.00 0.00 0.00 0.00 0.00 0.00 0.00 0.00 0.00 0.00 0.00 0.00 0.00 0.00 0.00 0.00 0.00
0.00 0.00 0.00 0.00 0.00 0.00 0.00 0.00 0.00 0.00 0.00 0.00 0.00 0.00 0.00 0.00 0.00 0.00 0.00 0.00 0.00 0.00 0.00 0.00 0.00 0.00 0.00 0.00 0.00 0.00 0.00 0.00 0.00 0.00 0.00 0.00 0.00 0.00 0.00 0.00 0.00 0.00 0.00 0.00
0.00 0.00 0.00 0.00 0.00 0.00 0.00 0.00 0.00 0.00 0.00 0.00 0.00 0.00 0.00 0.00 0.00 0.00 0.00 0.00 0.00 0.00 0.00 0.00 0.00 0.00 0.00 0.00 0.00 0.00 0.00 0.00 0.00 0.00 0.00 0.00 0.00 0.00 0.00 0.00 0.00 0.00 0.00 0.00
0.00 0.00 0.00 0.00 0.00 0.00 0.00 0.00 0.00 0.00 0.00 0.00 0.00 0.00 0.00 0.00 0.00 0.00 0.00 0.00 0.00 0.00 0.00 0.00 0.00 0.00 0.00 0.00 0.00 0.00 0.00 0.00 0.00 0.00 0.00 0.00 0.00 0.00 0.00 0.00 0.00 0.00 0.00 0.00
0.00 0.00 0.00 0.00 0.00 0.00 0.00 0.00 0.00 0.00 0.00 0.00 0.00 0.00 0.00 0.00 0.00 0.00 0.00 0.00 0.00 0.00 0.00 0.00 0.00 0.00 0.00 0.00 0.00 0.00 0.00 0.00 0.00 0.00 0.00 0.00 0.00 0.00 0.00 0.00 0.00 0.00 0.00 0.00
0.00 0.00 0.00 0.00 0.00 0.00 0.00 0.00 0.00 0.00 0.00 0.00 0.00 0.00 0.00 0.00 0.00 0.00 0.00 0.00 0.00 0.00 0.00 0.00 0.00 0.00 0.00 0.00 0.00 0.00 0.00 0.00 0.00 0.00 0.00 0.00 0.00 0.00 0.00 0.00 0.00 0.00 0.00 0.00
0.00 0.00 0.00 0.00 0.00 0.00 0.00 0.00 0.00 0.00 0.00 0.00 0.00 0.00 0.00 0.00 0.00 0.00 0.00 0.00 0.00 0.00 0.00 0.00 0.00 0.00 0.00 0.00 0.00 0.00 0.00 0.00 0.00 0.00 0.00 0.00 0.00 0.00 0.00 0.00 0.00 0.00 0.00 0.00
0.00 0.00 0.00 0.00 0.00 0.00 0.00 0.00 0.00 0.00 0.00 0.00 0.00 0.00 0.00 0.00 0.00 0.00 0.00 0.00 0.00 0.00 0.00 0.00 0.00 0.00 0.00 0.00 0.00 0.00 0.00 0.00 0.00 0.00 0.00 0.00 0.00 0.00 0.00 0.00 0.00 0.00 0.00 0.00
0.00 0.00 0.00 0.00 0.00 0.00 0.00 0.00 0.00 0.00 0.00 0.00 0.00 0.00 0.00 0.00 0.00 0.00 0.00 0.00 0.00 0.00 0.00 0.00 0.00 0.00 0.00 0.00 0.00 0.00 0.00 0.00 0.00 0.00 0.00 0.00 0.00 0.00 0.00 0.00 0.00 0.00 0.00 0.00
0.00 0.00 0.00 0.00 0.00 0.00 0.00 0.00 0.00 0.00 0.00 0.00 0.00 0.00 0.00 0.00 0.00 0.00 0.00 0.00 0.00 0.00 0.00 0.00 0.00 0.00 0.00 0.00 0.00 0.00 0.00 0.00 0.00 0.00 0.00 0.00 0.00 0.00 0.00 0.00 0.00 0.00 0.00 0.00
0.00 0.00 0.00 0.00 0.00 0.00 0.00 0.00 0.00 0.00 0.00 0.00 0.00 0.00 0.00 0.00 0.00 0.00 0.00 0.00 0.00 0.00 0.00 0.00 0.00 0.00 0.00 0.00 0.00 0.00 0.00 0.00 0.00 0.00 0.00 0.00 0.00 0.00 0.00 0.00 0.00 0.00 0.00 0.00
0.00 0.00 0.00 0.00 0.00 0.00 0.00 0.00 0.00 0.00 0.00 0.00 0.00 0.00 0.00 0.00 0.00 0.00 0.00 0.00 0.00 0.00 0.00 0.00 0.00 0.00 0.00 0.00 0.00 0.00 0.00 0.00 0.00 0.00 0.00 0.00 0.00 0.00 0.00 0.00 0.00 0.00 0.00 0.00
0.00 0.00 0.00 0.00 0.00 0.00 0.00 0.00 0.00 0.00 0.00 0.00 0.00 0.00 0.00 0.00 0.00 0.00 0.00 0.00 0.00 0.00 0.00 0.00 0.00 0.00 0.00 0.00 0.00 0.00 0.00 0.00 0.00 0.00 0.00 0.00 0.00 0.00 0.00 0.00 0.00 0.00 0.00 0.00
0.00 0.00 0.00 0.00 0.00 0.00 0.00 0.00 0.00 0.00 0.00 0.00 0.00 0.00 0.00 0.00 0.00 0.00 0.00 0.00 0.00 0.00 0.00 0.00 0.00 0.00 0.00 0.00 0.00 0.00 0.00 0.00 0.00 0.00 0.00 0.00 0.00 0.00 0.00 0.00 0.00 0.00 0.00 0.00
0.00 0.00 0.00 0.00 0.00 0.00 0.00 0.00 0.00 0.00 0.00 0.00 0.00 0.00 0.00 0.00 0.00 0.00 0.00 0.00 0.00 0.00 0.00 0.00 0.00 0.00 0.00 0.00 0.00 0.00 0.00 0.00 0.00 0.00 0.00 0.00 0.00 0.00 0.00 0.00 0.00 0.00 0.00 0.00
0.00 0.00 0.00 0.00 0.00 0.00 0.00 0.00 0.00 0.00 0.00 0.00 0.00 0.00 0.00 0.00 0.00 0.00 0.00 0.00 0.00 0.00 0.00 0.00 0.00 0.00 0.00 0.00 0.00 0.00 0.00 0.00 0.00 0.00 0.00 0.00 0.00 0.00 0.00 0.00 0.00 0.00 0.00 0.00
0.00 0.00 0.00 0.00 0.00 0.00 0.00 0.00 0.00 0.00 0.00 0.00 0.00 0.00 0.00 0.00 0.00 0.00 0.00 0.00 0.00 0.00 0.00 0.00 0.00 0.00 0.00 0.00 0.00 0.00 0.00 0.00 0.00 0.00 0.00 0.00 0.00 0.00 0.00 0.00 0.00 0.00 0.00 0.00
0.00 0.00 0.00 0.00 0.00 0.00 0.00 0.00 0.00 0.00 0.00 0.00 0.00 0.00 0.00 0.00 0.00 0.00 0.00 0.00 0.00 0.00 0.00 0.00 0.00 0.00 0.00 0.00 0.00 0.00 0.00 0.00 0.00 0.00 0.00 0.00 0.00 0.00 0.00 0.00 0.00 0.00 0.00 0.00
0.00 0.00 0.00 0.00 0.00 0.00 0.00 0.00 0.00 0.00 0.00 0.00 0.00 0.00 0.00 0.00 0.00 0.00 0.00 0.00 0.00 0.00 0.00 0.00 0.00 0.00 0.00 0.00 0.00 0.00 0.00 0.00 0.00 0.00 0.00 0.00 0.00 0.00 0.00 0.00 0.00 0.00 0.00 0.00
0.00 0.00 0.00 0.00 0.00 0.00 0.00 0.00 0.00 0.00 0.00 0.00 0.00 0.00 0.00 0.00 0.00 0.00 0.00 0.00 0.00 0.00 0.00 0.00 0.00 0.00 0.00 0.00 0.00 0.00 0.00 0.00 0.00 0.00 0.00 0.00 0.00 0.00 0.00 0.00 0.00 0.00 0.00 0.00
0.00 0.00 0.00 0.00 0.00 0.00 0.00 0.00 0.00 0.00 0.00 0.00 0.00 0.00 0.00 0.00 0.00 0.00 0.00 0.00 0.00 0.00 0.00 0.00 0.00 0.00 0.00 0.00 0.00 0.00 0.00 0.00 0.00 0.00 0.00 0.00 0.00 0.00 0.00 0.00 0.00 0.00 0.00 0.00
0.00 0.00 0.00 0.00 0.00 0.00 0.00 0.00 0.00 0.00 0.00 0.00 0.00 0.00 0.00 0.00 0.00 0.00 0.00 0.00 0.00 0.00 0.00 0.00 0.00 0.00 0.00 0.00 0.00 0.00 0.00 0.00 0.00 0.00 0.00 0.00 0.00 0.00 0.00 0.00 0.00 0.00 0.00 0.01
0.00 0.00 0.00 0.00 0.00 0.00 0.00 0.00 0.00 0.00 0.00 0.00 0.00 0.00 0.00 0.00 0.00 0.00 0.00 0.00 0.00 0.00 0.00 0.00 0.00 0.00 0.00 0.00 0.00 0.00 0.00 0.00 0.00 0.00 0.00 0.00 0.00 0.00 0.00 0.00 0.00 0.01 0.01 0.01
MSLP
1013.15 1013.29 1013.44 1013.61 1013.83 1014.09 1014.38 1014.70 1015.02 1015.33 1015.62 1015.88 1016.13 1016.38 1016.66 1016.97 1017.33 1017.73 1018.15 1018.59 1019.01 1019.38 1019.69 1019.93 1020.09 1020.19 1020.25 1020.30 1020.36 1020.44 1020.56 1020.69 1020.84 1020.97 1021.05 1021.07 1021.02 1020.88 1020.66 1020.39 1020.07 1019.73 1019.39 1019.07
1012.93 1013.06 1013.14 1013.20 1013.27 1013.35 1013.48 1013.65 1013.86 1014.12 1014.41 1014.73 1015.07 1015.45 1015.85 1016.29 1016.74 1017.21 1017.70 1018.17 1018.62 1019.03 1019.39 1019.69 1019.94 1020.13 1020.30 1020.43 1020.56 1020.69 1020.82 1020.96 1021.07 1021.17 1021.22 1021.22 1021.15 1021.02 1020.83 1020.59 1020.32 1020.02 1019.72 1019.42
1012.97 1013.04 1013.03 1012.95 1012.84 1012.74 1012.69 1012.71 1012.81 1013.00 1013.28 1013.63 1014.05 1014.52 1015.03 1015.55 1016.08 1016.62 1017.14 1017.64 1018.12 1018.57 1018.97 1019.34 1019.67 1019.96 1020.21 1020.43 1020.63 1020.80 1020.94 1021.07 1021.16 1021.22 1021.24 1021.21 1021.14 1021.02 1020.85 1020.65 1020.41 1020.15 1019.87 1019.58
1013.18 1013.16 1013.01 1012.77 1012.48 1012.20 1011.97 1011.84 1011.82 1011.95 1012.20 1012.58 1013.05 1013.60 1014.18 1014.79 1015.39 1015.97 1016.54 1017.07 1017.58 1018.06 1018.52 1018.94 1019.34 1019.71 1020.04 1020.32 1020.57 1020.77 1020.92 1021.03 1021.10 1021.13 1021.13 1021.08 1021.01 1020.90 1020.76 1020.58 1020.37 1020.14 1019.87 1019.58
1013.41 1013.26 1012.95 1012.54 1012.07 1011.61 1011.22 1010.95 1010.84 1010.90 1011.14 1011.53 1012.06 1012.67 1013.33 1014.01 1014.68 1015.33 1015.94 1016.52 1017.07 1017.59 1018.08 1018.56 1019.01 1019.43 1019.81 1020.14 1020.42 1020.63 1020.79 1020.89 1020.95 1020.96 1020.94 1020.89 1020.82 1020.72 1020.60 1020.44 1020.25 1020.02 1019.75 1019.44
1013.48 1013.18 1012.71 1012.13 1011.50 1010.90 1010.38 1010.01 1009.82 1009.84 1010.07 1010.49 1011.06 1011.74 1012.48 1013.24 1013.99 1014.71 1015.39 1016.02 1016.61 1017.18 1017.71 1018.23 1018.71 1019.17 1019.57 1019.92 1020.21 1020.43 1020.59 1020.69 1020.73 1020.74 1020.72 1020.68 1020.62 1020.53 1020.42 1020.28 1020.09 1019.84 1019.55 1019.20
1013.24 1012.79 1012.18 1011.48 1010.73 1010.03 1009.43 1009.00 1008.78 1008.79 1009.03 1009.48 1010.10 1010.85 1011.66 1012.50 1013.34 1014.13 1014.88 1015.58 1016.23 1016.84 1017.41 1017.96 1018.46 1018.92 1019.34 1019.69 1019.98 1020.19 1020.34 1020.44 1020.49 1020.50 1020.50 1020.47 1020.42 1020.35 1020.24 1020.10 1019.89 1019.63 1019.29 1018.90
1012.62 1012.05 1011.35 1010.57 1009.78 1009.04 1008.42 1007.98 1007.77 1007.79 1008.06 1008.55 1009.22 1010.02 1010.91 1011.82 1012.73 1013.60 1014.43 1015.19 1015.90 1016.55 1017.16 1017.72 1018.24 1018.70 1019.10 1019.44 1019.71 1019.92 1020.07 1020.17 1020.23 1020.26 1020.27 1020.26 1020.23 1020.17 1020.06 1019.90 1019.67 1019.37 1018.99 1018.56
1011.66 1011.02 1010.29 1009.51 1008.73 1008.02 1007.45 1007.06 1006.89 1006.95 1007.26 1007.78 1008.48 1009.32 1010.25 1011.21 1012.18 1013.12 1014.00 1014.83 1015.59 1016.28 1016.91 1017.49 1018.00 1018.45 1018.83 1019.15 1019.41 1019.61 1019.77 1019.88 1019.95 1020.01 1020.04 1020.05 1020.02 1019.96 1019.84 1019.66 1019.40 1019.06 1018.64 1018.16
1010.46 1009.82 1009.12 1008.40 1007.71 1007.10 1006.63 1006.33 1006.23 1006.35 1006.69 1007.23 1007.94 1008.79 1009.72 1010.70 1011.70 1012.67 1013.59 1014.46 1015.26 1015.98 1016.63 1017.21 1017.71 1018.15 1018.51 1018.82 1019.06 1019.26 1019.42 1019.54 1019.64 1019.72 1019.77 1019.79 1019.77 1019.70 1019.56 1019.34 1019.04 1018.66 1018.21 1017.71
1009.17 1008.58 1007.97 1007.38 1006.84 1006.38 1006.04 1005.86 1005.85 1006.03 1006.39 1006.92 1007.61 1008.43 1009.33 1010.29 1011.27 1012.25 1013.18 1014.07 1014.88 1015.62 1016.28 1016.86 1017.35 1017.77 1018.12 1018.41 1018.64 1018.84 1019.01 1019.15 1019.27 1019.37 1019.44 1019.47 1019.44 1019.35 1019.18 1018.92 1018.58 1018.17 1017.69 1017.17
1007.93 1007.44 1006.97 1006.54 1006.18 1005.90 1005.72 1005.66 1005.74 1005.96 1006.33 1006.84 1007.48 1008.23 1009.07 1009.97 1010.91 1011.85 1012.77 1013.65 1014.46 1015.20 1015.86 1016.42 1016.91 1017.31 1017.64 1017.92 1018.16 1018.36 1018.54 1018.70 1018.84 1018.96 1019.04 1019.06 1019.02 1018.90 1018.70 1018.40 1018.02 1017.57 1017.07 1016.55
1006.84 1006.45 1006.14 1005.89 1005.71 1005.61 1005.59 1005.65 1005.81 1006.06 1006.42 1006.89 1007.46 1008.14 1008.89 1009.72 1010.58 1011.47 1012.36 1013.21 1014.01 1014.74 1015.38 1015.94 1016.40 1016.79 1017.11 1017.38 1017.61 1017.82 1018.02 1018.20 1018.36 1018.49 1018.57 1018.59 1018.53 1018.38 1018.13 1017.79 1017.37 1016.89 1016.38 1015.85
1005.91 1005.64 1005.46 1005.37 1005.36 1005.42 1005.53 1005.70 1005.92 1006.20 1006.55 1006.97 1007.47 1008.06 1008.73 1009.48 1010.28 1011.11 1011.96 1012.78 1013.55 1014.26 1014.89 1015.42 1015.87 1016.24 1016.55 1016.81 1017.05 1017.26 1017.47 1017.67 1017.84 1017.98 1018.06 1018.07 1017.99 1017.80 1017.51 1017.13 1016.67 1016.16 1015.63 1015.10
1005.14 1004.95 1004.88 1004.92 1005.04 1005.21 1005.43 1005.68 1005.94 1006.24 1006.57 1006.96 1007.41 1007.94 1008.54 1009.23 1009.98 1010.77 1011.57 1012.36 1013.11 1013.80 1014.40 1014.91 1015.34 1015.70 1015.99 1016.25 1016.48 1016.70 1016.92 1017.13 1017.31 1017.46 1017.54 1017.54 1017.43 1017.21 1016.88 1016.45 1015.96 1015.41 1014.86 1014.33
1004.48 1004.34 1004.34 1004.46 1004.66 1004.91 1005.19 1005.48 1005.78 1006.08 1006.41 1006.78 1007.21 1007.70 1008.28 1008.93 1009.65 1010.41 1011.19 1011.96 1012.69 1013.35 1013.93 1014.42 1014.83 1015.16 1015.44 1015.69 1015.92 1016.15 1016.38 1016.60 1016.79 1016.94 1017.02 1017.00 1016.87 1016.62 1016.26 1015.79 1015.25 1014.68 1014.10 1013.55
1003.93 1003.81 1003.83 1003.97 1004.19 1004.47 1004.77 1005.08 1005.40 1005.71 1006.05 1006.41 1006.84 1007.33 1007.91 1008.56 1009.27 1010.03 1010.80 1011.56 1012.27 1012.91 1013.47 1013.94 1014.32 1014.64 1014.90 1015.14 1015.38 1015.61 1015.85 1016.08 1016.28 1016.44 1016.51 1016.48 1016.33 1016.05 1015.65 1015.14 1014.57 1013.96 1013.36 1012.78
1003.52 1003.38 1003.38 1003.49 1003.69 1003.95 1004.24 1004.54 1004.85 1005.16 1005.51 1005.89 1006.33 1006.85 1007.44 1008.11 1008.83 1009.60 1010.37 1011.12 1011.82 1012.44 1012.97 1013.42 1013.78 1014.09 1014.34 1014.58 1014.82 1015.06 1015.31 1015.56 1015.77 1015.93 1015.99 1015.95 1015.78 1015.47 1015.03 1014.50 1013.89 1013.25 1012.62 1012.01
1003.29 1003.11 1003.05 1003.11 1003.25 1003.45 1003.69 1003.95 1004.24 1004.54 1004.89 1005.28 1005.75 1006.28 1006.90 1007.59 1008.33 1009.10 1009.87 1010.60 1011.28 1011.88 1012.39 1012.82 1013.17 1013.46 1013.73 1013.97 1014.22 1014.48 1014.75 1015.01 1015.23 1015.39 1015.45 1015.39 1015.19 1014.85 1014.39 1013.82 1013.19 1012.52 1011.86 1011.24
1003.31 1003.07 1002.94 1002.92 1002.98 1003.09 1003.26 1003.46 1003.69 1003.97 1004.30 1004.69 1005.15 1005.70 1006.32 1007.01 1007.75 1008.51 1009.26 1009.97 1010.62 1011.19 1011.68 1012.09 1012.44 1012.74 1013.01 1013.28 1013.56 1013.84 1014.13 1014.41 1014.64 1014.79 1014.84 1014.76 1014.54 1014.18 1013.68 1013.09 1012.43 1011.75 1011.07 1010.43
1003.57 1003.28 1003.08 1002.97 1002.93 1002.96 1003.03 1003.15 1003.31 1003.54 1003.82 1004.18 1004.62 1005.15 1005.74 1006.41 1007.11 1007.83 1008.54 1009.21 1009.82 1010.36 1010.83 1011.23 1011.58 1011.90 1012.20 1012.50 1012.81 1013.13 1013.45 1013.74 1013.98 1014.13 1014.17 1014.06 1013.82 1013.42 1012.91 1012.29 1011.62 1010.92 1010.25 1009.61
1004.03 1003.70 1003.44 1003.25 1003.12 1003.05 1003.02 1003.05 1003.13 1003.28 1003.50 1003.80 1004.18 1004.64 1005.18 1005.78 1006.42 1007.07 1007.72 1008.33 1008.89 1009.40 1009.85 1010.25 1010.61 1010.95 1011.29 1011.64 1012.00 1012.36 1012.71 1013.01 1013.26 1013.40 1013.42 1013.30 1013.02 1012.60 1012.07 1011.44 1010.76 1010.08 1009.41 1008.80
1004.60 1004.24 1003.94 1003.68 1003.47 1003.31 1003.19 1003.13 1003.12 1003.18 1003.31 1003.52 1003.82 1004.20 1004.65 1005.16 1005.70 1006.27 1006.83 1007.37 1007.88 1008.35 1008.79 1009.19 1009.58 1009.96 1010.34 1010.74 1011.15 1011.55 1011.92 1012.25 1012.49 1012.63 1012.63 1012.48 1012.18 1011.74 1011.20 1010.57 1009.91 1009.24 1008.61 1008.03
1005.12 1004.75 1004.42 1004.12 1003.85 1003.62 1003.42 1003.28 1003.18 1003.15 1003.20 1003.32 1003.52 1003.80 1004.14 1004.55 1004.99 1005.46 1005.94 1006.41 1006.86 1007.30 1007.72 1008.14 1008.55 1008.97 1009.40 1009.85 1010.30 1010.73 1011.13 1011.47 1011.71 1011.83 1011.81 1011.64 1011.33 1010.89 1010.34 1009.73 1009.10 1008.47 1007.89 1007.36
1005.47 1005.11 1004.77 1004.44 1004.14 1003.86 1003.61 1003.40 1003.23 1003.13 1003.09 1003.12 1003.23 1003.41 1003.66 1003.97 1004.32 1004.70 1005.10 1005.51 1005.91 1006.33 1006.74 1007.16 1007.60 1008.06 1008.53 1009.01 1009.49 1009.95 1010.36 1010.70 1010.93 1011.04 1011.00 1010.82 1010.50 1010.07 1009.54 1008.96 1008.37 1007.80 1007.28 1006.82
1005.56 1005.22 1004.88 1004.56 1004.23 1003.93 1003.64 1003.39 1003.18 1003.03 1002.93 1002.89 1002.93 1003.04 1003.21 1003.44 1003.72 1004.03 1004.37 1004.73 1005.11 1005.50 1005.91 1006.34 1006.80 1007.27 1007.77 1008.27 1008.76 1009.22 1009.63 1009.95 1010.17 1010.26 1010.22 1010.03 1009.72 1009.30 1008.82 1008.29 1007.76 1007.26 1006.81 1006.42
1005.41 1005.08 1004.76 1004.44 1004.12 1003.81 1003.51 1003.24 1003.01 1002.83 1002.70 1002.63 1002.62 1002.69 1002.81 1002.99 1003.22 1003.49 1003.80 1004.13 1004.49 1004.87 1005.28 1005.71 1006.16 1006.64 1007.13 1007.62 1008.10 1008.54 1008.93 1009.22 1009.42 1009.50 1009.44 1009.27 1008.98 1008.60 1008.17 1007.71 1007.26 1006.84 1006.47 1006.16
Thickness
5720 5728 5730 5730 5732 5732 5725 5717 5708 5713 5716 5725 5731 5732 5730 5727 5724 5722 5720 5719 5718 5716 5715 5715 5714 5714 5713 5712 5711 5710 5707 5704 5702 5701 5700 5698 5696 5694 5693 5691 5690 5688 5686 5685
5720 5730 5732 5729 5733 5734 5732 5729 5724 5722 5721 5736 5735 5731 5727 5725 5724 5720 5719 5718 5717 5716 5714 5712 5710 5709 5709 5707 5706 5704 5701 5699 5697 5696 5694 5692 5690 5689 5687 5685 5683 5682 5680 5679
5703 5717 5722 5715 5732 5734 5733 5737 5732 5721 5728 5733 5728 5729 5729 5728 5725 5722 5720 5718 5715 5713 5711 5710 5708 5707 5704 5703 5701 5698 5696 5693 5692 5690 5688 5686 5685 5682 5680 5677 5676 5674 5673 5672
5696 5705 5694 5723 5747 5747 5741 5742 5744 5743 5741 5741 5741 5738 5735 5732 5727 5722 5720 5716 5713 5711 5708 5707 5705 5704 5701 5698 5695 5692 5689 5687 5686 5684 5682 5680 5677 5675 5672 5670 5668 5666 5665 5664
5687 5689 5700 5727 5745 5746 5737 5735 5747 5744 5742 5740 5737 5728 5724 5729 5729 5725 5720 5716 5712 5709 5706 5703 5701 5698 5695 5691 5688 5685 5682 5681 5679 5677 5675 5672 5670 5667 5665 5663 5660 5659 5657 5656
5685 5687 5688 5721 5749 5757 5745 5726 5746 5746 5741 5734 5729 5712 5718 5727 5725 5721 5717 5713 5709 5705 5702 5698 5695 5692 5688 5684 5681 5678 5676 5675 5673 5671 5668 5665 5662 5660 5657 5655 5652 5651 5649 5646
5684 5685 5699 5732 5748 5748 5719 5726 5747 5746 5743 5737 5733 5734 5733 5728 5722 5718 5713 5709 5705 5700 5696 5692 5689 5686 5681 5676 5674 5672 5671 5669 5666 5664 5661 5658 5655 5652 5649 5646 5643 5640 5638 5636
5680 5680 5697 5740 5741 5733 5736 5748 5747 5744 5743 5739 5734 5731 5728 5723 5717 5712 5707 5703 5699 5694 5688 5685 5682 5679 5673 5670 5668 5666 5664 5661 5658 5655 5653 5651 5646 5643 5639 5636 5632 5629 5626 5624
5700 5707 5727 5737 5742 5747 5746 5744 5743 5741 5739 5735 5728 5724 5720 5715 5711 5707 5703 5697 5693 5688 5682 5678 5675 5672 5667 5664 5662 5658 5655 5651 5648 5646 5643 5640 5636 5632 5628 5624 5620 5617 5614 5611
5703 5714 5726 5733 5739 5742 5744 5743 5742 5740 5736 5731 5724 5719 5714 5709 5704 5699 5695 5691 5686 5680 5675 5670 5668 5665 5662 5658 5655 5651 5646 5642 5639 5635 5632 5629 5625 5622 5617 5613 5609 5606 5602 5599
5699 5711 5718 5725 5730 5733 5736 5736 5734 5732 5729 5725 5719 5712 5707 5702 5697 5693 5688 5683 5679 5674 5669 5664 5661 5657 5654 5651 5647 5641 5637 5633 5629 5625 5622 5618 5614 5610 5607 5603 5598 5594 5590 5586
5696 5708 5708 5713 5723 5727 5726 5725 5724 5721 5716 5715 5713 5706 5700 5695 5690 5685 5680 5675 5670 5666 5661 5657 5653 5649 5646 5643 5638 5633 5627 5623 5619 5615 5611 5607 5602 5599 5597 5593 5590 5585 5581 5575
5708 5712 5710 5714 5717 5719 5718 5717 5716 5714 5710 5705 5702 5698 5693 5686 5681 5676 5672 5667 5662 5658 5654 5649 5645 5641 5638 5634 5630 5624 5619 5614 5609 5605 5601 5596 5592 5587 5584 5582 5579 5574 5569 5564
5705 5705 5701 5704 5705 5708 5708 5708 5706 5703 5700 5697 5692 5688 5683 5677 5672 5667 5663 5659 5655 5650 5645 5640 5636 5632 5630 5626 5621 5616 5610 5606 5600 5595 5590 5585 5580 5576 5571 5567 5563 5560 5556 5550
5695 5697 5696 5697 5697 5697 5697 5695 5691 5687 5685 5683 5680 5677 5672 5667 5662 5658 5654 5650 5644 5639 5635 5630 5626 5623 5620 5616 5611 5606 5600 5595 5590 5585 5580 5574 5569 5564 5559 5554 5549 5545 5541 5537
5684 5685 5684 5684 5684 5684 5683 5682 5678 5675 5674 5671 5668 5665 5662 5657 5652 5648 5643 5639 5633 5628 5625 5621 5618 5615 5611 5606 5601 5595 5590 5587 5582 5574 5569 5563 5557 5552 5546 5541 5536 5531 5526 5522
5668 5668 5669 5669 5671 5671 5672 5671 5669 5666 5663 5660 5657 5654 5649 5644 5639 5635 5631 5628 5624 5620 5616 5612 5609 5606 5601 5596 5590 5585 5579 5574 5571 5564 5557 5551 5545 5540 5534 5528 5523 5518 5514 5509
5664 5664 5664 5664 5663 5661 5661 5660 5659 5656 5653 5651 5647 5642 5637 5633 5628 5624 5621 5617 5612 5608 5605 5603 5599 5595 5591 5586 5580 5574 5568 5562 5556 5550 5545 5539 5533 5528 5522 5516 5511 5506 5502 5497
5652 5652 5653 5653 5653 5652 5650 5648 5647 5645 5642 5639 5635 5630 5627 5623 5619 5614 5610 5605 5600 5596 5595 5593 5590 5585 5580 5575 5570 5563 5556 5550 5544 5538 5532 5528 5522 5515 5509 5503 5498 5493 5489 5484
5640 5641 5641 5641 5641 5639 5638 5636 5634 5632 5630 5627 5623 5618 5614 5611 5607 5603 5598 5594 5591 5589 5586 5582 5578 5573 5568 5563 5559 5551 5544 5538 5532 5526 5520 5513 5508 5503 5497 5491 5486 5481 5477 5472
5626 5627 5628 5627 5627 5626 5625 5623 5621 5619 5617 5614 5611 5607 5603 5599 5595 5591 5586 5582 5581 5578 5574 5571 5566 5561 5556 5551 5546 5538 5532 5525 5519 5513 5507 5501 5495 5490 5485 5480 5475 5470 5465 5461
5612 5612 5613 5613 5612 5611 5610 5609 5608 5606 5603 5601 5598 5595 5590 5585 5582 5578 5576 5573 5571 5567 5562 5557 5553 5549 5545 5540 5532 5526 5519 5513 5506 5500 5494 5488 5483 5478 5473 5468 5463 5459 5455 5450
5597 5597 5597 5597 5597 5597 5596 5595 5594 5592 5590 5587 5585 5581 5578 5574 5570 5565 5562 5561 5557 5555 5550 5545 5542 5538 5534 5527 5519 5513 5506 5500 5494 5488 5482 5477 5471 5466 5462 5458 5453 5448 5444 5439
5583 5583 5584 5583 5582 5581 5579 5579 5578 5577 5575 5574 5572 5569 5565 5560 5556 5555 5552 5550 5547 5543 5537 5533 5529 5525 5520 5512 5505 5498 5492 5486 5481 5476 5470 5465 5460 5455 5451 5447 5443 5439 5434 5430
5567 5568 5568 5567 5566 5566 5565 5564 5562 5561 5559 5557 5556 5554 5552 5549 5545 5542 5538 5535 5533 5528 5523 5519 5516 5511 5504 5496 5490 5484 5478 5473 5468 5463 5458 5454 5449 5445 5441 5437 5433 5429 5425 5422
5551 5551 5552 5552 5552 5551 5549 5548 5546 5545 5543 5541 5539 5538 5535 5533 5530 5527 5523 5520 5516 5513 5507 5502 5498 5493 5487 5481 5476 5471 5466 5461 5457 5452 5447 5443 5439 5435 5432 5428 5425 5421 5417 5414
5534 5534 5534 5534 5535 5535 5534 5533 5531 5530 5528 5526 5524 5522 5519 5516 5513 5510 5507 5503 5499 5495 5491 5487 5482 5478 5473 5467 5463 5458 5454 5449 5445 5441 5437 5433 5429 5426 5423 5420 5417 5413 5410 5407